TimePST,TemperatureF,Dew PointF,Humidity,Sea Level PressureIn,VisibilityMPH,Wind Direction,Wind SpeedMPH,Gust SpeedMPH,PrecipitationIn,Events,Conditions,WindDirDegrees,DateUTC
12:52 AM,30.9,30.0,96,30.17,10.0,North,4.6,-,N/A,,Clear,10,2013-11-09 08:52:00
1:52 AM,32.0,30.0,92,30.18,10.0,North,5.8,-,N/A,,Clear,360,2013-11-09 09:52:00
2:52 AM,30.9,30.0,96,30.19,10.0,North,4.6,-,N/A,,Clear,360,2013-11-09 10:52:00
3:52 AM,30.9,30.0,96,30.19,10.0,North,6.9,-,N/A,,Clear,360,2013-11-09 11:52:00
4:52 AM,30.9,30.0,96,30.20,9.0,North,8.1,-,N/A,,Clear,350,2013-11-09 12:52:00
5:52 AM,30.9,28.9,92,30.20,10.0,North,6.9,-,N/A,,Clear,350,2013-11-09 13:52:00
6:52 AM,30.9,30.0,96,30.21,10.0,North,8.1,-,N/A,,Clear,360,2013-11-09 14:52:00
7:52 AM,32.0,30.9,96,30.22,10.0,North,8.1,-,N/A,,Clear,350,2013-11-09 15:52:00
8:52 AM,34.0,32.0,92,30.24,10.0,North,9.2,-,N/A,,Clear,360,2013-11-09 16:52:00
9:52 AM,37.0,34.0,89,30.23,10.0,North,6.9,-,N/A,,Clear,360,2013-11-09 17:52:00
10:52 AM,42.1,36.0,79,30.21,10.0,NNE,6.9,-,N/A,,Clear,30,2013-11-09 18:52:00
11:52 AM,45.0,37.9,76,30.20,10.0,North,5.8,-,N/A,,Partly Cloudy,350,2013-11-09 19:52:00
12:52 PM,46.9,37.9,71,30.18,10.0,North,6.9,-,N/A,,Mostly Cloudy,10,2013-11-09 20:52:00
1:52 PM,46.9,37.9,71,30.15,10.0,North,8.1,-,N/A,,Overcast,10,2013-11-09 21:52:00
2:52 PM,46.9,37.9,71,30.16,10.0,NNW,5.8,-,N/A,,Overcast,330,2013-11-09 22:52:00
3:52 PM,46.9,37.9,71,30.15,10.0,North,8.1,-,N/A,,Overcast,350,2013-11-09 23:52:00
4:52 PM,44.1,37.9,79,30.14,10.0,NNW,8.1,-,N/A,,Overcast,340,2013-11-10 00:52:00
5:52 PM,44.1,37.9,79,30.15,10.0,NNW,9.2,-,N/A,,Overcast,330,2013-11-10 01:52:00
6:52 PM,44.1,39.0,82,30.16,10.0,North,9.2,-,N/A,,Overcast,350,2013-11-10 02:52:00
7:52 PM,43.0,39.9,89,30.15,10.0,North,9.2,-,N/A,,Overcast,350,2013-11-10 03:52:00
8:52 PM,43.0,39.9,89,30.16,10.0,North,6.9,-,N/A,,Overcast,350,2013-11-10 04:52:00
9:52 PM,43.0,39.0,86,30.16,10.0,NNW,8.1,-,N/A,,Overcast,340,2013-11-10 05:52:00
10:52 PM,42.1,39.0,89,30.15,10.0,North,5.8,-,N/A,,Overcast,350,2013-11-10 06:52:00
11:52 PM,41.0,39.0,93,30.16,10.0,NNW,5.8,-,N/A,,Overcast,340,2013-11-10 07:52:00